Weather reports worldwide

Advertisment
Punta Marina, Italy (16146): temperature & dewpoint: 31.05.2020 19:00:00 - 06.06.2020 19:00:00 (CEST)Punta Marina, Italy (16146): wind speed: 31.05.2020 19:00:00 - 06.06.2020 19:00:00 (CEST)Punta Marina, Italy (16146): wind direction: 31.05.2020 19:00:00 - 06.06.2020 19:00:00 (CEST)Punta Marina, Italy (16146): reduced air pressure: 31.05.2020 19:00:00 - 06.06.2020 19:00:00 (CEST)Punta Marina, Italy (16146): visibility: 31.05.2020 19:00:00 - 06.06.2020 19:00:00 (CEST)Punta Marina, Italy (16146): sunshine duration: 31.05.2020 19:00:00 - 06.06.2020 19:00:00 (CEST)
Date & Time tt [°C] td [°C] ff [km/h] ff [kn] dd ppp [hPa] vv [km] sd [min]
06.06.2020 19:00:00 24,0 17,0 11 6 SE - - -
06.06.2020 18:00:00 24,0 18,0 9 5 SE - - -
06.06.2020 17:00:00 25,2 17,8 13 7 SE 1006,9 - 60
06.06.2020 16:00:00 - - - - - - - -
06.06.2020 15:00:00 26,0 17,0 16 9 E - - -
06.06.2020 14:00:00 25,0 16,5 18 10 E 1007,6 - 60
06.06.2020 13:00:00 24,0 16,0 16 9 E - - -
06.06.2020 12:00:00 22,0 16,0 13 7 E - - -
06.06.2020 11:00:00 21,2 15,2 9 5 ESE 1007,2 - 60
06.06.2020 10:00:00 20,0 15,0 9 5 ESE - - -
06.06.2020 09:00:00 16,0 13,0 9 5 SE - - -
06.06.2020 08:00:00 14,7 12,7 5 3 SSW 1005,8 - 42
06.06.2020 07:00:00 15,0 13,0 4 2 - - - -
06.06.2020 06:00:00 16,0 13,0 2 1 SSW - - -
06.06.2020 05:00:00 16,6 13,1 4 2 N 1005,1 - 0
06.06.2020 04:00:00 17,0 14,0 4 2 - - - -
06.06.2020 03:00:00 17,0 15,0 5 3 WSW - - -
06.06.2020 02:00:00 19,0 16,5 4 2 N 1004,1 - 0
06.06.2020 01:00:00 19,0 17,0 2 1 - - - -
06.06.2020 00:00:00 19,0 16,0 4 2 - - - -
05.06.2020 23:00:00 19,8 15,4 13 7 SE 1002,0 - 0
05.06.2020 22:00:00 21,0 15,0 4 2 - - - -
05.06.2020 21:00:00 22,0 17,0 5 3 - - - -
05.06.2020 20:00:00 22,0 14,9 4 2 N 1000,3 - 35
05.06.2020 19:00:00 25,0 17,0 11 6 SE - - -
05.06.2020 18:00:00 23,0 17,0 13 7 ESE - - -
05.06.2020 17:00:00 24,5 17,9 11 6 ESE 999,6 - 19
05.06.2020 16:00:00 22,0 17,0 15 8 E - - -
05.06.2020 15:00:00 26,0 19,0 13 7 ESE - - -
05.06.2020 14:00:00 24,0 18,0 11 6 ENE 998,6 - 23
05.06.2020 13:00:00 22,0 15,0 9 5 NE - - -
05.06.2020 12:00:00 21,0 15,0 13 7 NE - - -
05.06.2020 11:00:00 19,2 15,5 4 2 N 997,6 - 42
05.06.2020 10:00:00 18,0 15,0 4 2 - - - -
05.06.2020 09:00:00 17,0 15,0 4 2 - - - -
05.06.2020 08:00:00 16,2 14,3 5 3 WSW 996,4 - 10
05.06.2020 07:00:00 16,0 15,0 4 2 - - - -
05.06.2020 06:00:00 16,0 15,0 4 2 - - - -
05.06.2020 05:00:00 16,4 15,0 4 2 N 995,7 - 0
05.06.2020 04:00:00 17,0 16,0 8 4 - - - -
05.06.2020 03:00:00 18,0 17,0 8 4 - - - -
05.06.2020 02:00:00 19,1 16,2 4 2 N 997,7 - 0
05.06.2020 01:00:00 21,0 14,0 9 5 ESE - - -
05.06.2020 00:00:00 21,0 16,0 8 4 - - - -
04.06.2020 23:00:00 20,3 17,0 4 2 N 997,4 - 0
04.06.2020 22:00:00 20,0 17,0 11 6 - - - -
04.06.2020 21:00:00 20,0 16,0 15 8 SE - - -
04.06.2020 20:00:00 20,2 15,6 22 12 SE 1000,2 - 0
04.06.2020 19:00:00 21,0 15,0 24 13 SE - - -
04.06.2020 18:00:00 20,0 17,0 18 10 SE - - -
04.06.2020 17:00:00 20,1 16,4 18 10 SE 1002,0 - 0
04.06.2020 16:00:00 - - - - - - - -
04.06.2020 15:00:00 19,0 16,0 16 9 SE - 10 -
04.06.2020 14:00:00 18,9 15,9 15 8 SE 1004,1 15 0
04.06.2020 13:00:00 19,0 15,0 13 7 SE - 10 -
04.06.2020 12:00:00 19,0 13,0 5 3 - - 10 -
04.06.2020 11:00:00 21,7 11,0 4 2 N 1004,3 15 0
04.06.2020 10:00:00 21,0 11,0 5 3 - - 10 -
04.06.2020 09:00:00 18,0 11,0 4 2 - - 10 -
04.06.2020 08:00:00 16,5 10,2 4 2 N 1004,0 15 31
04.06.2020 07:00:00 18,0 10,0 4 2 - - - -
04.06.2020 06:00:00 17,0 10,0 4 2 - - - -
04.06.2020 05:00:00 18,3 10,3 5 3 SW 1004,8 - 0
04.06.2020 04:00:00 20,0 10,0 4 2 - - - -
04.06.2020 03:00:00 21,0 9,0 5 3 WSW - - -
04.06.2020 02:00:00 20,9 9,0 4 2 N 1005,7 - 0
04.06.2020 01:00:00 21,0 9,0 8 4 - - - -
04.06.2020 00:00:00 22,0 10,0 5 3 - - - -
03.06.2020 23:00:00 23,4 10,2 4 2 N 1005,8 - 0
03.06.2020 22:00:00 25,0 9,0 5 3 SW - - -
03.06.2020 21:00:00 25,0 12,0 8 4 WSW - - -
03.06.2020 20:00:00 25,7 13,1 4 2 N 1005,4 - 0
03.06.2020 19:00:00 24,0 17,0 8 4 - - - -
03.06.2020 18:00:00 25,0 17,0 9 5 - - - -
03.06.2020 17:00:00 25,3 16,1 13 7 SE 1007,2 - 57
03.06.2020 16:00:00 26,0 16,0 15 8 ESE - 10 -
03.06.2020 15:00:00 26,0 16,0 13 7 ESE - 10 -
03.06.2020 14:00:00 26,2 15,6 15 8 ESE 1008,7 15 60
03.06.2020 13:00:00 26,0 16,0 11 6 E - 10 -
03.06.2020 12:00:00 24,0 12,0 9 5 E - 10 -
03.06.2020 11:00:00 21,1 12,4 4 2 N 1009,8 15 60
03.06.2020 10:00:00 19,0 13,0 5 3 WNW - 10 -
03.06.2020 09:00:00 17,0 12,0 4 2 - - 10 -
03.06.2020 08:00:00 15,8 12,2 5 3 W 1009,7 15 42
03.06.2020 07:00:00 17,0 13,0 5 3 WSW - - -
03.06.2020 06:00:00 19,0 15,0 5 3 WSW - - -
03.06.2020 05:00:00 19,0 13,6 5 3 WSW 1010,2 - 0
03.06.2020 04:00:00 19,0 15,0 4 2 - - - -
03.06.2020 03:00:00 20,0 15,0 5 3 NNW - - -
03.06.2020 02:00:00 19,8 14,3 5 3 E 1011,0 - 0
03.06.2020 01:00:00 21,0 14,0 2 1 - - - -
03.06.2020 00:00:00 21,0 16,0 4 2 - - - -
02.06.2020 23:00:00 20,9 16,8 4 2 N 1010,5 - 0
02.06.2020 22:00:00 22,0 17,0 5 3 SSE - - -
02.06.2020 21:00:00 23,0 17,0 5 3 - - - -
02.06.2020 20:00:00 23,9 16,7 4 2 N 1010,5 - 22
02.06.2020 19:00:00 25,0 16,0 9 5 SE - - -
02.06.2020 18:00:00 25,0 16,0 13 7 SE - - -
02.06.2020 17:00:00 24,9 15,4 13 7 SE 1012,7 - 60
02.06.2020 16:00:00 25,0 15,0 21 11 ESE - - -
02.06.2020 15:00:00 26,0 15,0 16 9 ESE - - -
02.06.2020 14:00:00 23,7 12,6 16 9 ESE 1014,5 - 40
02.06.2020 13:00:00 23,0 12,0 13 7 ESE - - -
02.06.2020 12:00:00 22,0 14,0 11 6 SE - - -
02.06.2020 11:00:00 21,4 10,9 9 5 ESE 1015,3 - 58
02.06.2020 10:00:00 19,0 10,0 8 4 ESE - - -
02.06.2020 09:00:00 15,0 10,0 4 2 - - - -
02.06.2020 08:00:00 14,6 9,5 5 3 SW 1015,5 - 31
02.06.2020 07:00:00 14,0 10,0 5 3 W - - -
02.06.2020 06:00:00 15,0 10,0 8 4 SSW - - -
02.06.2020 05:00:00 14,9 9,4 5 3 SW 1016,8 - 0
02.06.2020 04:00:00 15,0 10,0 5 3 WSW - - -
02.06.2020 03:00:00 16,0 12,0 5 3 WSW - - -
02.06.2020 02:00:00 17,2 13,4 5 3 SW 1017,0 - 0
02.06.2020 01:00:00 18,0 13,0 4 2 - - - -
02.06.2020 00:00:00 18,0 13,0 4 2 - - - -
01.06.2020 23:00:00 19,2 11,7 4 2 N 1016,6 - 0
01.06.2020 22:00:00 21,0 12,0 4 2 - - - -
01.06.2020 21:00:00 23,0 11,0 4 2 - - - -
01.06.2020 20:00:00 23,4 11,2 4 2 N 1017,0 - 60
01.06.2020 19:00:00 23,0 11,0 8 4 SE - - -
01.06.2020 18:00:00 24,0 11,0 11 6 SE - - -
01.06.2020 17:00:00 23,9 10,7 13 7 SE 1017,9 - 60
01.06.2020 16:00:00 23,0 11,0 11 6 SE - 10 -
01.06.2020 15:00:00 22,0 11,0 11 6 ESE - 10 -
01.06.2020 14:00:00 22,8 11,6 11 6 ESE 1018,2 15 60
01.06.2020 13:00:00 23,0 11,0 11 6 ESE - 10 -
01.06.2020 12:00:00 23,0 12,0 9 5 E - 10 -
01.06.2020 11:00:00 20,7 12,9 5 3 E 1018,3 12 60
01.06.2020 10:00:00 18,0 12,0 8 4 E - 10 -
01.06.2020 09:00:00 15,0 11,0 4 2 - - 10 -
01.06.2020 08:00:00 14,2 10,8 5 3 WSW 1017,7 12 22
01.06.2020 07:00:00 14,0 11,0 4 2 - - - -
01.06.2020 06:00:00 15,0 11,0 4 2 W - - -
01.06.2020 05:00:00 15,5 10,0 4 2 N 1017,3 - 0
01.06.2020 04:00:00 16,0 10,0 4 2 WSW - - -
01.06.2020 03:00:00 17,0 9,0 4 2 - - - -
01.06.2020 02:00:00 17,4 9,6 4 2 N 1016,8 - 0
01.06.2020 01:00:00 17,0 9,0 4 2 - - - -
01.06.2020 00:00:00 18,0 10,0 4 2 - - - -
31.05.2020 23:00:00 18,3 9,4 9 5 ESE 1015,3 - 0
31.05.2020 22:00:00 19,0 10,0 8 4 SE - - -
31.05.2020 21:00:00 21,0 10,0 13 7 ESE - - -
31.05.2020 20:00:00 21,2 10,3 9 5 ESE 1014,9 - 15
31.05.2020 19:00:00 22,0 10,0 11 6 ESE - - -

tt = temperature
td = dewpoint
ff = wind speed
dd = wind direction
ppp = reduced air pressure
vv = visibility
sd = sunshine duration

Next stations